This is the latest recevied weather packets stored in our database for station/object WW4HG. If no packets are shown the sender has not sent any weather packets the latest 10 day(s).
| Time | Temp. | Humidity | Pressure | Rain* | Wind** | Luminosity | Snow |
|---|---|---|---|---|---|---|---|
| 1777987589 | 20.56° C | 49% | 1019.7 hPa | 0 mm | - | 316 W/m² | - |
| 1777987287 | 20.56° C | 51% | 1019.4 hPa | 0 mm | - | 310 W/m² | - |
| 1777986984 | 20.56° C | 51% | 1019.7 hPa | 0 mm | - | 307 W/m² | - |
| 1777986681 | 20° C | 51% | 1019.4 hPa | 0 mm | - | 301 W/m² | - |
| 1777986380 | 20° C | 50% | 1019.4 hPa | 0 mm | - | 296 W/m² | - |
| 1777986078 | 20° C | 51% | 1019.7 hPa | 0 mm | - | 287 W/m² | - |
| 1777985774 | 20° C | 52% | 1019.4 hPa | 0 mm | - | 282 W/m² | - |
| 1777985471 | 19.44° C | 54% | 1019.4 hPa | 0 mm | - | 275 W/m² | - |
| 1777985167 | 19.44° C | 54% | 1019.4 hPa | 0 mm | - | 269 W/m² | - |
| 1777984864 | 19.44° C | 55% | 1019.7 hPa | 0 mm | - | 262 W/m² | - |
| 1777984560 | 18.89° C | 56% | 1019.4 hPa | 0 mm | - | 254 W/m² | - |
| 1777984256 | 18.89° C | 52% | 1019.4 hPa | 0 mm | - | 246 W/m² | - |
| 1777983953 | 17.78° C | 54% | 1019.4 hPa | 0 mm | - | 238 W/m² | - |
| 1777983650 | 17.22° C | 56% | 1019.7 hPa | 0 mm | - | 230 W/m² | - |
| 1777983347 | 16.11° C | 57% | 1019.4 hPa | 0 mm | - | 221 W/m² | - |
| 1777983044 | 15.56° C | 62% | 1019.4 hPa | 0 mm | - | 212 W/m² | - |
| 1777982741 | 15° C | 66% | 1019.4 hPa | 0 mm | - | 205 W/m² | - |
| 1777982436 | 13.89° C | 71% | 1019.4 hPa | 0 mm | - | 196 W/m² | - |
| 1777982130 | 13.89° C | 75% | 1019.4 hPa | 0 mm | - | 186 W/m² | - |
| 1777981828 | 13.33° C | 78% | 1019.4 hPa | 0 mm | - | 177 W/m² | - |
| 1777981525 | 12.78° C | 81% | 1019.4 hPa | 0 mm | - | 167 W/m² | - |
| 1777981222 | 11.67° C | 83% | 1019.4 hPa | 0 mm | - | 155 W/m² | - |
| 1777980918 | 11.11° C | 84% | 1019.4 hPa | 0 mm | - | 145 W/m² | - |
| 1777980615 | 10.56° C | 84% | 1019.4 hPa | 0 mm | - | 135 W/m² | - |
| 1777980311 | 10.56° C | 84% | 1019 hPa | 0 mm | - | 125 W/m² | - |
* Rain latest hour (hover to see other rain measurements)
** Current wind speed in m/s (hover to see current wind gust speed)